Wind_Speed
11 10 9 9 9 8 8 8 7 7 7 6 5 4 4 4 4 4 4 5 4 4 3 3 2 2 1 1 1 2 3 3 2 2 2 3 2 1 0 0 0 2 2
11 10 10 10 9 8 7 8 7 7 6 5 4 4 4 4 4 4 4 4 4 3 3 2 2 2 1 1 1 1 2 2 2 2 2 2 2 1 1 1 1 2 2
10 10 10 10 9 8 8 8 7 7 7 5 5 4 4 4 4 4 4 4 4 3 2 2 2 1 1 1 1 1 1 2 2 2 2 2 2 2 1 1 1 1 2
10 9 10 10 9 8 8 8 7 7 7 6 5 5 4 4 4 4 4 4 4 3 1 1 1 1 1 0 0 0 1 2 2 2 2 2 2 2 2 2 2 1 2
8 8 9 9 9 8 8 7 7 7 6 6 5 5 4 4 4 4 4 4 3 2 1 1 1 1 1 0 0 0 1 2 2 2 2 2 2 1 2 2 2 2 3
8 8 8 8 8 8 8 7 7 7 6 6 5 5 5 4 4 4 4 3 3 2 2 1 2 1 1 1 1 1 2 2 2 3 3 3 2 1 1 2 2 2 3
8 8 8 8 8 8 7 7 7 6 6 6 5 4 5 5 4 4 3 3 3 2 2 2 2 1 1 2 2 2 3 3 3 4 3 3 2 2 1 1 1 2 2
7 7 8 8 8 7 7 6 6 6 6 6 6 5 4 4 3 4 3 3 3 3 2 3 2 2 3 3 3 3 3 3 3 4 4 2 2 2 2 2 2 2 2
7 7 7 8 7 7 6 6 6 5 5 6 6 5 5 4 4 3 3 4 3 3 3 2 3 3 3 3 3 3 3 3 3 3 2 3 3 2 2 2 3 2 3
7 7 7 7 7 6 6 6 5 5 5 5 5 5 5 4 4 4 3 3 3 3 3 3 4 4 3 4 4 3 3 4 3 2 3 3 3 3 3 3 3 4 4
7 7 7 7 7 7 6 6 5 5 5 6 5 5 5 4 3 3 3 3 3 4 3 3 4 4 4 4 4 3 2 3 3 3 4 4 4 4 5 5 5 5 6
8 8 7 7 6 6 6 6 5 5 5 5 5 5 5 5 4 4 4 4 4 5 4 4 5 5 4 4 4 4 3 3 3 3 3 4 4 4 5 5 5 5 6
9 9 8 8 7 7 6 6 6 6 5 6 5 5 5 5 4 5 5 5 5 4 5 5 5 6 5 4 4 4 3 4 4 4 4 4 4 5 5 5 5 5 6
10 9 9 8 7 7 7 6 6 6 5 5 5 5 5 5 4 4 5 5 5 5 6 6 6 6 5 5 5 4 4 4 4 4 4 5 5 5 6 5 6 6 6
11 10 10 9 8 7 7 7 7 7 6 6 6 5 5 5 4 4 5 5 6 7 6 6 6 6 6 5 5 5 4 4 4 5 5 5 6 6 6 6 7 7 7
11 11 10 10 9 8 8 8 8 7 7 7 6 5 5 5 5 5 5 6 6 6 6 5 5 5 5 5 5 5 5 6 6 6 6 6 6 7 7 7 8 7 7
12 12 11 10 9 9 9 9 9 8 8 7 6 6 6 6 5 6 6 6 6 6 6 6 6 6 6 7 7 7 7 7 7 7 7 7 7 7 8 8 8 8 8
13 12 12 11 10 10 10 10 10 9 8 8 7 7 6 6 7 7 7 7 6 5 6 7 7 7 7 8 8 8 8 8 8 8 8 8 8 8 9 10 10 10 9
14 13 13 12 12 11 11 11 10 10 9 8 8 8 8 8 8 7 8 7 6 6 7 7 7 8 8 8 9 9 9 9 9 10 10 10 10 10 10 11 12 11 11
14 14 14 13 12 12 11 11 11 11 9 9 8 8 8 9 8 9 8 8 7 7 7 7 7 8 8 8 9 10 10 10 11 11 12 12 12 12 12 13 13 13 13
15 14 14 14 13 13 12 12 12 12 11 10 10 9 9 9 9 9 9 8 8 8 8 7 8 9 10 10 10 11 11 11 12 12 13 13 13 13 13 14 13 14 14
15 14 14 14 14 14 13 13 13 12 11 11 11 10 10 10 10 10 9 9 9 9 9 9 9 10 11 11 12 12 12 13 13 13 13 13 13 13 14 15 15 14 15
16 15 14 15 15 15 14 14 13 13 13 12 12 12 11 12 12 11 10 11 11 11 11 12 12 11 11 12 12 13 14 14 14 13 13 13 14 15 15 16 15 15 16
16 16 15 15 14 15 15 15 14 14 14 13 13 13 13 13 13 13 12 12 12 12 13 13 13 13 13 13 13 13 14 14 14 14 14 14 15 15 15 16 16 17 18
17 16 16 16 15 14 14 15 15 15 15 15 14 14 15 15 14 13 13 13 13 13 13 13 14 14 14 14 14 14 14 14 13 14 14 15 15 15 16 17 17 18 19
17 17 17 17 16 16 15 15 16 16 16 16 15 16 16 15 15 15 15 15 15 15 14 14 15 15 15 15 15 15 15 15 14 15 15 15 16 16 17 18 18 18 18
Wind_Direction
10 8 4 4 4 10 17 20 22 19 19 18 19 25 21 13 7 0 358 0 2 359 355 11 18 11 351 266 188 182 167 163 155 164 173 169 163 134 144 283 188 166 162
8 6 7 8 8 12 17 19 19 19 19 18 22 29 22 13 8 359 356 355 360 1 5 17 16 5 345 301 324 170 178 183 172 179 186 182 185 207 260 270 243 186 181
4 4 8 11 12 15 17 19 20 19 15 17 27 27 24 14 7 1 1 354 348 354 355 357 2 349 351 359 5 151 171 187 192 200 200 205 220 236 255 257 261 222 202
360 2 8 12 13 16 18 21 24 21 18 20 23 20 20 14 3 1 360 349 342 348 352 328 333 332 323 317 114 158 176 159 191 203 216 225 232 234 243 266 251 246 216
356 360 7 11 12 15 18 21 24 24 23 22 17 15 14 10 3 353 345 343 342 338 326 318 288 296 296 245 264 282 188 193 212 224 227 240 242 242 259 266 254 256 231
355 357 7 10 12 17 20 22 22 20 21 18 14 13 11 6 357 348 345 344 333 320 289 266 269 243 234 258 250 245 223 223 243 252 261 250 248 256 264 265 264 266 246
352 355 2 6 9 15 17 18 15 13 15 14 16 13 12 10 3 359 352 340 330 306 273 261 264 264 235 233 234 239 223 229 250 246 259 252 244 248 262 308 300 301 268
347 350 356 360 4 6 7 8 12 10 9 9 12 6 5 9 6 351 343 334 328 325 311 277 257 248 242 249 252 248 240 255 251 242 252 250 235 245 283 300 307 298 283
340 342 350 352 356 357 357 358 2 2 4 7 7 3 357 359 357 345 334 328 325 324 316 277 245 253 261 265 262 254 249 257 250 249 251 234 230 252 272 286 285 283 285
337 336 338 344 346 348 350 347 348 351 354 357 2 359 355 350 347 334 325 322 321 315 304 278 261 254 259 266 260 253 250 258 257 251 241 232 235 252 262 269 274 278 282
329 331 331 335 339 342 345 344 345 344 347 348 350 346 346 339 324 310 310 311 309 303 300 281 272 257 256 261 258 252 249 247 248 250 237 239 246 258 263 267 274 278 281
322 323 326 326 328 331 334 336 337 336 336 335 334 334 333 325 325 322 318 307 292 292 294 287 271 259 259 260 257 255 245 237 243 256 237 239 247 257 264 273 279 277 279
315 318 319 318 318 318 320 324 325 324 326 326 323 322 328 324 320 308 306 312 301 295 293 288 276 268 264 260 258 258 252 250 249 251 243 239 247 257 266 274 277 276 281
311 312 315 314 314 310 308 312 312 309 312 317 315 308 315 319 317 306 300 295 294 296 292 284 276 269 263 260 259 258 260 262 255 254 252 248 253 256 261 266 273 275 279
309 308 306 308 306 304 303 302 305 306 299 295 299 300 300 308 307 307 306 293 292 295 292 284 273 265 259 256 256 256 260 269 268 263 263 261 260 257 257 259 264 268 271
301 302 300 298 295 293 293 295 293 292 292 298 291 286 286 287 286 300 304 301 300 298 293 288 277 265 258 255 256 262 261 263 266 267 265 264 264 262 264 264 262 263 268
294 294 291 292 289 291 291 287 284 284 286 288 285 282 283 281 286 287 295 305 311 305 297 290 283 274 262 256 256 258 259 258 260 262 260 261 263 263 262 260 260 261 266
287 287 285 285 287 288 287 285 281 279 275 272 274 268 274 277 278 281 287 300 301 295 292 285 277 274 266 260 259 259 258 257 257 258 258 261 263 261 261 260 261 264 265
284 283 282 280 282 284 281 281 282 280 274 269 267 263 266 270 267 272 276 289 285 288 289 284 277 269 265 263 262 262 264 264 262 262 262 263 264 264 265 263 263 266 269
279 280 279 277 277 277 275 275 275 275 278 279 274 267 265 261 263 267 273 285 281 287 288 284 277 270 267 265 266 264 265 269 270 267 266 264 264 263 263 265 265 267 270
275 276 276 274 270 269 270 275 273 271 273 276 271 268 266 264 265 271 271 275 279 286 282 279 278 271 271 270 270 267 268 273 273 272 267 266 262 262 264 266 268 268 268
273 271 272 272 269 266 270 274 273 268 267 271 269 267 264 266 271 270 272 272 276 279 276 276 277 275 273 270 270 268 269 272 272 271 266 263 260 261 264 266 269 270 272
273 270 269 268 267 265 266 268 270 266 266 270 267 263 262 264 268 270 269 272 272 274 275 274 273 273 274 274 273 270 271 272 270 268 268 265 262 264 267 268 269 270 271
269 268 265 268 266 265 265 265 267 267 268 268 266 262 264 266 266 268 270 271 271 272 274 273 274 273 273 273 274 273 272 270 270 267 266 265 265 268 271 270 273 273 271
262 263 262 265 266 265 267 266 266 265 265 265 264 262 263 265 265 267 270 271 272 274 273 274 273 273 272 274 274 273 271 270 272 270 267 267 267 271 273 274 277 276 273
258 257 258 263 265 265 265 265 264 264 264 263 263 263 264 264 267 267 268 271 272 273 271 272 271 272 272 272 271 269 268 268 270 269 266 267 269 271 273 275 277 278 277
Height
5875 5874 5873 5872 5870 5869 5868 5867 5867 5867 5867 5867 5867 5867 5867 5867 5868 5868 5868 5868 5868 5868 5868 5868 5868 5868 5869 5869 5870 5870 5871 5872 5873 5873 5874 5874 5875 5876 5876 5877 5877 5877 5878
5876 5874 5873 5872 5870 5869 5868 5868 5867 5867 5867 5867 5867 5867 5867 5867 5867 5867 5867 5868 5868 5868 5868 5868 5868 5868 5869 5869 5869 5870 5871 5872 5872 5873 5874 5874 5875 5876 5876 5877 5877 5878 5878
5876 5875 5873 5872 5870 5869 5868 5868 5867 5867 5867 5867 5867 5867 5867 5867 5867 5867 5867 5867 5868 5867 5868 5868 5868 5868 5869 5869 5870 5870 5871 5872 5872 5873 5874 5874 5875 5876 5876 5877 5877 5877 5878
5876 5875 5873 5872 5871 5870 5869 5868 5867 5867 5867 5866 5866 5867 5867 5867 5867 5867 5867 5867 5867 5867 5868 5868 5868 5868 5869 5869 5869 5870 5871 5872 5872 5873 5874 5874 5875 5875 5876 5876 5877 5877 5877
5876 5875 5874 5872 5871 5870 5869 5868 5867 5867 5867 5867 5867 5867 5867 5867 5867 5867 5867 5867 5867 5867 5867 5867 5868 5868 5868 5869 5869 5870 5871 5871 5872 5873 5873 5874 5874 5875 5875 5876 5876 5876 5877
5876 5875 5874 5872 5871 5870 5869 5868 5868 5867 5867 5867 5867 5867 5866 5866 5866 5866 5866 5866 5866 5867 5867 5867 5867 5867 5868 5869 5869 5870 5870 5871 5871 5872 5873 5873 5874 5874 5875 5875 5876 5876 5877
5876 5875 5873 5872 5871 5870 5870 5869 5868 5868 5867 5867 5867 5866 5866 5866 5866 5866 5866 5866 5866 5866 5866 5867 5866 5867 5868 5868 5868 5869 5869 5870 5871 5871 5872 5873 5873 5874 5874 5875 5875 5876 5876
5875 5874 5873 5872 5871 5870 5869 5869 5868 5868 5867 5867 5866 5866 5866 5866 5866 5866 5866 5866 5866 5866 5866 5866 5866 5867 5867 5868 5868 5868 5869 5869 5870 5871 5871 5872 5873 5873 5874 5874 5875 5875 5876
5875 5874 5873 5872 5871 5870 5869 5868 5868 5868 5867 5867 5866 5866 5866 5865 5865 5865 5865 5865 5865 5865 5865 5865 5865 5866 5866 5867 5867 5867 5868 5868 5868 5869 5870 5871 5872 5873 5873 5874 5874 5874 5875
5874 5873 5872 5871 5870 5869 5869 5868 5867 5867 5867 5866 5866 5865 5865 5865 5865 5865 5864 5864 5864 5864 5864 5864 5865 5865 5865 5866 5866 5867 5867 5867 5868 5868 5869 5870 5871 5872 5872 5873 5873 5873 5874
5873 5872 5871 5871 5870 5869 5868 5868 5867 5867 5866 5866 5865 5865 5865 5864 5864 5864 5864 5864 5863 5863 5863 5863 5864 5864 5864 5865 5865 5866 5866 5867 5867 5867 5868 5869 5870 5871 5871 5872 5872 5872 5872
5872 5871 5870 5870 5869 5868 5868 5867 5867 5866 5866 5865 5865 5864 5864 5863 5862 5862 5863 5863 5863 5863 5863 5863 5863 5863 5863 5864 5864 5865 5865 5866 5866 5867 5867 5868 5869 5870 5870 5871 5871 5871 5871
5871 5870 5869 5868 5868 5867 5867 5866 5866 5865 5865 5864 5863 5863 5863 5863 5862 5862 5862 5862 5862 5862 5862 5862 5862 5862 5862 5863 5863 5864 5864 5865 5865 5866 5866 5867 5867 5868 5869 5869 5870 5870 5870
5869 5869 5868 5867 5866 5866 5865 5865 5865 5864 5864 5863 5863 5862 5862 5862 5862 5862 5861 5861 5861 5861 5861 5861 5861 5861 5861 5862 5862 5863 5863 5864 5864 5865 5865 5866 5866 5867 5867 5868 5868 5868 5868
5867 5867 5866 5865 5865 5864 5864 5864 5863 5863 5862 5862 5862 5861 5861 5861 5861 5860 5860 5860 5860 5859 5859 5859 5859 5859 5860 5860 5861 5862 5862 5863 5863 5864 5864 5864 5865 5865 5866 5867 5867 5867 5867
5865 5865 5864 5864 5863 5863 5862 5862 5861 5861 5861 5860 5860 5860 5860 5860 5860 5859 5859 5859 5859 5858 5858 5858 5858 5858 5858 5859 5860 5860 5861 5862 5862 5863 5863 5863 5863 5864 5865 5865 5865 5865 5865
5863 5862 5862 5861 5861 5861 5860 5860 5859 5859 5859 5858 5858 5858 5858 5858 5858 5858 5858 5858 5857 5857 5857 5857 5857 5857 5857 5858 5858 5859 5859 5860 5861 5861 5861 5861 5862 5862 5863 5863 5863 5864 5864
5859 5859 5859 5859 5859 5858 5858 5857 5857 5857 5857 5857 5856 5856 5856 5856 5856 5856 5856 5856 5856 5855 5855 5855 5855 5855 5856 5856 5857 5857 5857 5858 5858 5859 5859 5860 5860 5860 5860 5861 5861 5861 5861
5856 5856 5856 5856 5856 5856 5855 5854 5854 5854 5854 5854 5854 5854 5854 5854 5854 5854 5854 5854 5854 5854 5854 5854 5853 5853 5854 5854 5854 5855 5855 5856 5856 5856 5857 5857 5858 5858 5858 5858 5858 5858 5858
5852 5853 5853 5853 5853 5852 5852 5852 5852 5851 5851 5852 5852 5851 5852 5852 5852 5852 5852 5852 5852 5852 5852 5852 5852 5851 5852 5852 5852 5853 5853 5853 5853 5853 5854 5854 5855 5855 5855 5855 5855 5856 5856
5849 5849 5849 5849 5849 5849 5849 5849 5849 5849 5849 5849 5849 5849 5849 5849 5850 5850 5850 5850 5850 5850 5850 5850 5849 5849 5849 5850 5850 5851 5851 5850 5851 5850 5851 5851 5851 5851 5852 5852 5852 5852 5852
5845 5845 5845 5845 5846 5846 5846 5846 5846 5846 5846 5846 5847 5847 5847 5847 5848 5848 5848 5848 5848 5848 5848 5848 5847 5847 5847 5847 5847 5848 5848 5848 5847 5847 5847 5847 5848 5848 5848 5848 5848 5849 5849
5841 5841 5842 5842 5842 5842 5842 5842 5842 5843 5843 5843 5844 5844 5844 5844 5845 5845 5845 5845 5845 5845 5845 5845 5844 5844 5844 5844 5844 5845 5845 5845 5844 5844 5844 5844 5844 5845 5845 5845 5844 5845 5845
5837 5838 5838 5838 5838 5838 5839 5839 5839 5840 5840 5840 5840 5841 5841 5841 5842 5842 5842 5842 5842 5842 5842 5841 5841 5841 5841 5841 5841 5841 5841 5841 5841 5841 5841 5841 5840 5840 5840 5841 5840 5840 5840
5833 5833 5834 5834 5834 5835 5835 5835 5835 5836 5836 5836 5837 5837 5838 5838 5838 5839 5839 5838 5839 5838 5838 5838 5838 5837 5837 5837 5837 5837 5837 5837 5837 5837 5837 5837 5837 5836 5836 5836 5836 5836 5836
5828 5829 5829 5829 5830 5830 5830 5831 5831 5832 5832 5832 5833 5834 5834 5834 5835 5835 5835 5835 5835 5835 5835 5834 5834 5833 5833 5833 5833 5833 5833 5833 5833 5833 5833 5833 5833 5832 5832 5832 5831 5831 5831